Regional Weather Roundup
Issued by NWS Wilmington, NC

Home | Current Version | Previous Version | Text Only | Print | Product List | Glossary On
Versions: 1 2 3 4 5 6 7 8 9 10 11 12 13 14 15 16 17 18 19 20 21 22 23 24 25 26 27
000
ASUS42 KILM 241213
RWRILM
RWRILM
REGIONAL HOURLY WEATHER ROUNDUP
NATIONAL WEATHER SERVICE WILMINGTON NC
800 AM EDT FRI MAR 24 2017

NOTE: "FAIR" INDICATES FEW OR NO CLOUDS BELOW 12,000 FEET WITH NO
SIGNIFICANT WEATHER AND/OR OBSTRUCTIONS TO VISIBILITY.

...............WFO WILMINGTON COUNTY WARNING AREA...............

......COASTAL NC AND SC COUNTIES......

CITY           SKY/WX    TMP DP  RH WIND       PRES   REMARKS
WILMINGTON     PTCLDY    38  34  85 NE5       30.54R WCI  34
N MYRTLE BEACH CLEAR     41  40  96 N5        30.52R
MYRTLE BEACH   CLEAR     43  39  87 N7        30.52R

......INLAND NC AND SC COUNTIES.......

CITY           SKY/WX    TMP DP  RH WIND       PRES   REMARKS
LUMBERTON      CLEAR     39  33  79 NE3       30.52S
ELIZABETHTOWN  CLEAR     38  33  81 E5        30.53S WCI  35
WHITEVILLE     CLEAR     39  32  76 NE5       30.52S
FLORENCE       CLEAR     41  38  89 NE6       30.52S
DARLINGTON     PTCLDY    42  37  82 CALM      30.53R
KINGSTREE      FAIR      41  36  81 CALM      30.51S
HARTSVILLE     CLOUDY    41  36  81 E5        30.51S
BENNETTSVILLE  FAIR      43  39  87 E5        30.52F
CONWAY         FAIR      41  39  93 NE3       30.52S FOG
GEORGETOWN     FAIR      45  45 100 CALM      30.51R
MARION         FAIR      41  36  81 NE5       30.53S

....................REST OF NORTH CAROLINA......................

.........EASTERN NC.........

CITY           SKY/WX    TMP DP  RH WIND       PRES   REMARKS
CAPE HATTERAS  SUNNY     48  42  80 NE5       30.54S
JACKSONVILLE   CLEAR     38  36  92 NE5       30.54S WCI  34
MOREHEAD CITY  SUNNY     46  42  86 NE3       30.53F
KENANSVILLE    CLEAR     34  32  93 CALM      30.54S
NEW BERN       MOSUNNY   38  36  92 CALM      30.56S
ELIZABETH CITY SUNNY     36  33  89 CALM      30.55S

.........CENTRAL NC.........

CITY           SKY/WX    TMP DP  RH WIND       PRES   REMARKS
RALEIGH DURHAM PTCLDY    38  29  70 S3        30.52S
ROCKY MOUNT    CLEAR     32  32 100 CALM      30.53F FOG
ROANOKE RAPIDS NOT AVBL
FAYETTEVILLE   PTCLDY    38  32  79 CALM      30.53S
HOFFMAN        PTCLDY    38  33  85 CALM      30.51F

.........WESTERN NC.........

CITY           SKY/WX    TMP DP  RH WIND       PRES   REMARKS
CHARLOTTE      CLOUDY    44  35  70 CALM      30.50S
GREENSBORO     PTCLDY    38  32  79 SW5       30.48F WCI  34
HICKORY        NOT AVBL
BOONE          NOT AVBL
ASHEVILLE      NOT AVBL

.....................REST OF SOUTH CAROLINA.....................

.........EASTERN SC.........

CITY           SKY/WX    TMP DP  RH WIND       PRES   REMARKS
CHARLESTON     PTCLDY    49  47  93 N3        30.48R
BEAUFORT MCAS  PTCLDY    50  49  96 NE7       30.48R
HILTON HEAD    CLEAR     54  52  94 N7        30.47R

.........CENTRAL SC.........

CITY           SKY/WX    TMP DP  RH WIND       PRES   REMARKS
COLUMBIA       CLOUDY    50  37  61 E5        30.50R
ORANGEBURG     CLEAR     45  39  79 E3        30.50R
SUMTER SHAW    CLOUDY    44  38  77 NE5       30.49R

.........WESTERN SC.........

CITY           SKY/WX    TMP DP  RH WIND       PRES   REMARKS
GREENVILLE     NOT AVBL
ROCK HILL      CLOUDY    44  35  70 CALM      30.50S
ANDERSON       CLOUDY    51  36  56 NE3       30.48S
CLEMSON        NOT AVBL
GREENWOOD      PTCLDY    46  36  68 NE3       30.49S


...................COASTAL AND OFFSHORE REPORTS..................

................LOCAL PIERS AND NC RESERVE................


STATION/POSITION TIME  SKY/WX   TEMP    WIND        PRES    VSBY
                                AIR SEA DIR/SP/G
                 (UTC)          (F)     (DEG/KT/KT) (MB)    (MI)
JOHNY MRCER PIER 1142            42 55   20/  7/  8 1032.6S
NC RESRV MASNBRO 1045            39      30/  1     1032.0
OCEAN CREST PIER NOT AVBL
SPRINGMAID  PIER 1148                               1032.4R


................COASTAL AND OFFSHORE BUOYS................


STATION/POSITION TIME  SKY/WX   TEMP    WIND        PRES    VSBY
                                AIR SEA DIR/SP/G
                 (UTC)          (F)     (DEG/KT/KT) (MB)    (MI)
DIMNDSHOAL 41025 1150            58 75  180/ 10/ 14 1034.3R
WVE H/P(F/S)=  5/10 SWL H/P/D(F/S/D)=  5/ 60/10

CAPE LOOKOUT     1100            47     360/  8/ 11 1033.5R
ONSLOW BAY 41036 NOT AVBL
ONSLOW BAY 41064 1108            62     160/  8/ 14 1033.3R
ONSLOW BAY 41159 1143               69                N/A
WVE H/P(F/S)=  4/ 7 SWL H/P/D(F/S/D)=  2/ 90/11

MASNBO INL 41110 1129               56                N/A
WVE H/P(F/S)=  3/ 5

WILM HARBR 41108 1147               56                N/A
WVE H/P(F/S)=  3/ 5

27SE WRITB 41037 1108            62 62  140/ 10/ 14 1031.9S
FRYING PAN 41013 1150            65 72  160/ 10/ 14 1032.5R
WVE H/P(F/S)=  4/10 SWL H/P/D(F/S/D)=  3/100/10

SUNST NRSH 41024 NOT AVBL
CAPRS NRSH 41029 1108            58      50/ 12/ 16 1031.3R
EDISTO     41004 1050            67 71  100/  8/ 12 1030.7
WVE H/P(F/S)=  5/ 7 SWL H/P/D(F/S/D)=  5/ 80/ 7



..........OFFSHORE BUOYS BEYOND 100 NM OFFSHORE...........
.....IN A TRIANGLE---HAT TO BERMUDA TO BAHAMAS TO HAT.....


STATION/POSITION TIME  SKY/WX   TEMP    WIND        PRES    VSBY
                                AIR SEA DIR/SP/G
                 (UTC)          (F)     (DEG/KT/KT) (MB)    (MI)
150E HAT   41001 NOT AVBL
W BERMUDA  41048 1050            59 68   50/ 16/ 19 1032.0
WVE H/P(F/S)=  9/10 SWL H/P/D(F/S/D)=  7/ 10/10

ATLANTIC S 41049 1150            66 72   40/ 27/ 33 1024.8R
WVE H/P(F/S)= 13/ 8

E BAHAMAS  41046 NOT AVBL
NE BAHAMAS 41047 1150            68 72   60/ 23/ 29 1027.0R
WVE H/P(F/S)= 13/10 SWL H/P/D(F/S/D)=  8/ 20/10

120E CANVRL41010 NOT AVBL

END




USA.gov is the U.S. government's official web portal to all federal, state and local government web resources and services.